Other Public Products
Issued by NWS Charleston, SC

Home | Current Version | Previous Version | Text Only | Print | Product List | Glossary On
Versions: 1 2 3 4 5 6 7 8 9 10 11 12 13 14 15 16 17 18 19 20 21 22 23 24 25 26 27 28 29 30 31 32 33 34 35 36 37 38 39 40 41 42 43 44 45 46 47 48 49 50
790
FPUS82 KCHS 031227
OPUCHS

TEST...KCHS/KSAV Gateway Observations...TEST
National Weather Service Charleston SC
700 AM EST SAT DEC 03 2016

NOTE: "fair" indicates few or no clouds below 12,000 feet with no
significant weather and/or obstructions to visibility.

SCZ050-WAZ558-NCZ071-TXZ119-213-PAZ071-DCZ001-FLZ074-172-MI076-
NYZ176-178-MAZ016-IL014-TNZ027-NJZ106-GAZ044-MD014-031300-
...Gateway Observations for Charleston International...

CITY           SKY/WX    TMP DP  RH WIND       PRES   REMARKS
Chas Airport   PTCLDY    40  35  83 CALM      30.25R
6HR MIN TEMP:  38; 6HR MAX TEMP:  44;

Seattle        PTCLDY    45  42  89 SW10      30.24R
6HR MIN TEMP:  45; 6HR MAX TEMP:  47;

Charlotte      PTCLDY    41  28  60 N12       30.24R
6HR MIN TEMP:  37; 6HR MAX TEMP:  44;

Dallas DFW     LGT RAIN  49  44  83 NE17      30.08F
6HR MIN TEMP:  49; 6HR MAX TEMP:  57; 6HR PCP:  0.02;

Dallas Love    CLOUDY    49  46  90 E10G18    30.09S
6HR MIN TEMP:  49; 6HR MAX TEMP:  57; 6HR PCP:  0.03;

Philladelphia  MOCLDY    44  31  60 NW18G26   30.09R
6HR MIN TEMP:  42; 6HR MAX TEMP:  45;

Wash National  PTCLDY    43  28  55 W13       30.19R
6HR MIN TEMP:  43; 6HR MAX TEMP:  45;

Baltimore      PTCLDY    41  29  62 W14       30.14R
6HR MIN TEMP:  40; 6HR MAX TEMP:  43;

Miami          PTCLDY    73  66  78 NE5       30.08R
6HR MIN TEMP:  73; 6HR MAX TEMP:  75;

Detroit        CLOUDY    35  29  78 W7        30.31R WCI  29
6HR MIN TEMP:  32; 6HR MAX TEMP:  35;

Newark         PTCLDY    41  27  57 W21       29.99R
6HR MIN TEMP:  41; 6HR MAX TEMP:  44; 6HR PCP: TRACE;

Laguardia      PTCLDY    44  28  53 NW17      29.98R
6HR MIN TEMP:  43; 6HR MAX TEMP:  46;

J F K          PTCLDY    42  25  50 NW15      29.99R
6HR MIN TEMP:  42; 6HR MAX TEMP:  45; 6HR PCP: TRACE;

Boston Logan   MOCLDY    38  27  64 W16       29.81R WCI  29
6HR MIN TEMP:  38; 6HR MAX TEMP:  42;

Ft. Lauderdale PTCLDY    75  64  68 NE9       30.08R
6HR MIN TEMP:  75; 6HR MAX TEMP:  76;

Chicago O`Hare CLOUDY    32  22  66 W6        30.34S WCI  26
6HR MIN TEMP:  32; 6HR MAX TEMP:  34;

Chicago Midway CLOUDY    33  21  61 W8        30.35S WCI  26
6HR MIN TEMP:  33; 6HR MAX TEMP:  35;

Houston Bush   CLOUDY    51  49  92 NE17      29.90F
6HR MIN TEMP:  50; 6HR MAX TEMP:  54; 6HR PCP:  0.47;

Houston Hobby  LGT RAIN  57  55  93 E8        29.90R
6HR MIN TEMP:  54; 6HR MAX TEMP:  58; 6HR PCP:  0.37;

Nashville      CLOUDY    37  30  75 CALM      30.36R
6HR MIN TEMP:  37; 6HR MAX TEMP:  42;

Atlanta        MOCLDY    42  33  70 NW7       30.26S
6HR MIN TEMP:  42; 6HR MAX TEMP:  45;


$$

GAZ044-118-TXZ119-213-NCZ071-DCZ001-MDZ014-506-PAZ021-071-NJZ106-
NYZ176-178-MAZ106-OHZ011-021-055-MIZ076-KYZ091-ILZ014-INZ047-
MNZ060-031300-
...Gateway Observations for Savannah International...

CITY           SKY/WX    TMP DP  RH WIND       PRES   REMARKS
Savannah Arpt  MOCLDY    44  36  73 N6        30.25R
6HR MIN TEMP:  42; 6HR MAX TEMP:  45;

Atlanta        MOCLDY    42  33  70 NW7       30.26S
6HR MIN TEMP:  42; 6HR MAX TEMP:  45;

Charlotte      PTCLDY    41  28  60 N12       30.24R
6HR MIN TEMP:  37; 6HR MAX TEMP:  44;

Dallas DFW     LGT RAIN  49  44  83 NE17      30.08F
6HR MIN TEMP:  49; 6HR MAX TEMP:  57; 6HR PCP:  0.02;

Houston Bush   CLOUDY    51  49  92 NE17      29.90F
6HR MIN TEMP:  50; 6HR MAX TEMP:  54; 6HR PCP:  0.47;

Wash National  PTCLDY    43  28  55 W13       30.19R
6HR MIN TEMP:  43; 6HR MAX TEMP:  45;

Wash Dulles    PTCLDY    39  27  62 W7        30.20R WCI  34
6HR MIN TEMP:  39; 6HR MAX TEMP:  43;

Baltimore      PTCLDY    41  29  62 W14       30.14R
6HR MIN TEMP:  40; 6HR MAX TEMP:  43;

Philadelphia   MOCLDY    44  31  60 NW18G26   30.09R
6HR MIN TEMP:  42; 6HR MAX TEMP:  45;

Newark         PTCLDY    41  27  57 W21       29.99R
6HR MIN TEMP:  41; 6HR MAX TEMP:  44; 6HR PCP: TRACE;

Laguardia      PTCLDY    44  28  53 NW17      29.98R
6HR MIN TEMP:  43; 6HR MAX TEMP:  46;

J F K          PTCLDY    42  25  50 NW15      29.99R
6HR MIN TEMP:  42; 6HR MAX TEMP:  45; 6HR PCP: TRACE;

Boston         MOCLDY    38  27  64 W16       29.81R WCI  29
6HR MIN TEMP:  38; 6HR MAX TEMP:  42;

Pittsburg      CLOUDY    37  29  72 W13       30.24R WCI  29
6HR MIN TEMP:  37; 6HR MAX TEMP:  37;

Akron          LGT SNOW  35  29  78 W9        30.28R WCI  28
6HR MIN TEMP:  35; 6HR MAX TEMP:  36; 6HR PCP: TRACE;

Cleveland      CLOUDY    37  29  72 SW8       30.30R WCI  31
6HR MIN TEMP:  37; 6HR MAX TEMP:  39;

Cincinnati     CLOUDY    36  34  92 W5        30.33S WCI  32
6HR MIN TEMP:  36; 6HR MAX TEMP:  37; 6HR PCP: TRACE;

Columbus       CLOUDY    36  32  87 W3        30.33S
Detroit        CLOUDY    35  29  78 W7        30.31R WCI  29
6HR MIN TEMP:  32; 6HR MAX TEMP:  35;

Chicago O`Hare CLOUDY    32  22  66 W6        30.34S WCI  26
6HR MIN TEMP:  32; 6HR MAX TEMP:  34;

Minneapolis    CLOUDY    29  20  69 W7        30.31S WCI  22
6HR MIN TEMP:  29; 6HR MAX TEMP:  30;

Indianapolis   CLOUDY    37  28  70 W12       30.34S WCI  29
6HR MIN TEMP:  37; 6HR MAX TEMP:  37;


$$




USA.gov is the U.S. government's official web portal to all federal, state and local government web resources and services.